{"data":{"norad_id":57496,"epoch":"2026-09-20T22:00:03.000096Z","epoch_age_seconds":91650,"freshness":"FRESH","line1":"1 57496U 23113B   26263.91670139 -.00023923  00000+0 -86223-3 0  9990","line2":"2 57496  43.0031 353.5506 0001739 266.9687  49.8053 15.27593303  5850","mean_motion":15.27593303,"eccentricity":0.0001739,"inclination_deg":43.0031,"raan_deg":353.5506,"arg_perigee_deg":266.9687,"mean_anomaly_deg":49.8053,"bstar":-0.00086223,"rev_number":585,"period_min":94.265927794526,"perigee_km":481.81610902598,"apogee_km":484.20241569603,"semimajor_km":6861.146262361,"source":"CELESTRAK","updated_at":"2026-09-21T09:00:33.632203Z"}}